DW4641 Weather Reports


Display with metric or nautical units.
time (UTC)temp
F
wind
direction
speed
MPH
gust
MPH
rain 1hr
in
rain 24hr
in
rain mn
in
humidity
%
barometer
mb
20180422024008 51 341 2.0 6.0 0.00 0.00 0.00 32 1025.1
20180422023508 50 297 1.0 6.0 0.00 0.00 0.00 32 1024.9
20180422023008 50 261 1.0 4.0 0.00 0.00 0.00 33 1024.9
20180422022508 50 251 1.0 4.0 0.00 0.00 0.00 32 1024.9
20180422022008 50 235 1.0 2.0 0.00 0.00 0.00 33 1024.8
20180422021509 50 235 1.0 3.0 0.00 0.00 0.00 32 1024.7
20180422021009 50 234 1.0 4.0 0.00 0.00 0.00 33 1024.6
20180422020508 50 233 1.0 4.0 0.00 0.00 0.00 32 1024.5
20180422020008 50 0 0.0 0.0 0.00 0.00 0.00 32 1024.6
20180422015509 51 0 0.0 0.0 0.00 0.00 0.00 32 1024.5
20180422015009 51 232 0.0 1.0 0.00 0.00 0.00 32 1024.5
20180422014508 51 232 0.0 2.0 0.00 0.00 0.00 31 1024.4
20180422014008 52 232 0.0 2.0 0.00 0.00 0.00 30 1024.4
20180422013508 52 232 0.0 2.0 0.00 0.00 0.00 30 1024.2
20180422013009 52 232 0.0 2.0 0.00 0.00 0.00 29 1024.3
20180422012509 52 232 0.0 2.0 0.00 0.00 0.00 29 1024.2
20180422012008 52 232 0.0 2.0 0.00 0.00 0.00 28 1024.1
20180422011508 52 232 0.0 2.0 0.00 0.00 0.00 29 1024.1
20180422011008 52 233 1.0 2.0 0.00 0.00 0.00 29 1024.1
20180422010508 52 233 1.0 2.0 0.00 0.00 0.00 29 1024.0
20180422010009 52 232 0.0 2.0 0.00 0.00 0.00 29 1024.0
20180422005508 53 0 0.0 0.0 0.00 0.00 0.00 30 1023.9
20180422005008 53 0 0.0 0.0 0.00 0.00 0.00 29 1023.9
20180422004508 53 0 0.0 0.0 0.00 0.00 0.00 28 1023.8
20180422004008 54 232 0.0 2.0 0.00 0.00 0.00 28 1023.8
20180422003508 54 232 0.0 4.0 0.00 0.00 0.00 28 1023.8
20180422003008 54 232 1.0 4.0 0.00 0.00 0.00 27 1023.7
20180422002508 54 232 0.0 2.0 0.00 0.00 0.00 27 1023.6
20180422002008 55 232 0.0 3.0 0.00 0.00 0.00 27 1023.5
20180422001508 55 232 0.0 3.0 0.00 0.00 0.00 26 1023.4
20180422001009 55 233 1.0 3.0 0.00 0.00 0.00 26 1023.3
20180422000508 56 232 1.0 4.0 0.00 0.00 0.00 27 1023.3
20180422000008 56 232 1.0 4.0 0.00 0.00 0.00 26 1023.2
20180421235508 56 232 1.0 3.0 0.00 0.00 0.00 26 1023.1
20180421235008 56 230 1.0 4.0 0.00 0.00 0.00 26 1023.0
20180421234508 56 245 2.0 7.0 0.00 0.00 0.00 25 1023.0
20180421234009 56 261 1.0 7.0 0.00 0.00 0.00 25 1022.9
20180421233508 57 268 1.0 10.0 0.00 0.00 0.00 25 1022.9
20180421233008 57 271 2.0 10.0 0.00 0.00 0.00 25 1022.8
20180421232508 57 270 3.0 9.0 0.00 0.00 0.00 25 1022.7
20180421232008 58 267 3.0 9.0 0.00 0.00 0.00 25 1022.6
20180421231508 58 269 4.0 9.0 0.00 0.00 0.00 24 1022.6
20180421231009 58 266 3.0 9.0 0.00 0.00 0.00 24 1022.5
20180421230508 58 270 2.0 8.0 0.00 0.00 0.00 24 1022.5
20180421230009 58 282 3.0 9.0 0.00 0.00 0.00 25 1022.3
20180421225508 58 269 3.0 9.0 0.00 0.00 0.00 24 1022.3
20180421225008 59 258 3.0 8.0 0.00 0.00 0.00 23 1022.2
20180421224508 59 267 3.0 8.0 0.00 0.00 0.00 23 1022.1
20180421224008 59 275 3.0 8.0 0.00 0.00 0.00 23 1022.1
20180421223508 60 303 3.0 9.0 0.00 0.00 0.00 22 1022.1
20180421223009 60 313 3.0 9.0 0.00 0.00 0.00 22 1022.0
20180421222508 61 273 3.0 11.0 0.00 0.00 0.00 22 1021.9
20180421222008 61 256 3.0 11.0 0.00 0.00 0.00 22 1022.0
20180421221508 61 261 4.0 12.0 0.00 0.00 0.00 22 1021.9
20180421221008 61 269 4.0 12.0 0.00 0.00 0.00 21 1022.0
20180421220508 61 288 3.0 9.0 0.00 0.00 0.00 21 1021.8
20180421220009 61 347 2.0 9.0 0.00 0.00 0.00 21 1021.9
20180421215508 61 303 3.0 9.0 0.00 0.00 0.00 21 1021.9
20180421215008 61 270 4.0 9.0 0.00 0.00 0.00 21 1021.9
20180421214508 61 274 4.0 12.0 0.00 0.00 0.00 21 1021.9
20180421214008 61 278 5.0 12.0 0.00 0.00 0.00 21 1021.8
20180421213508 61 280 4.0 11.0 0.00 0.00 0.00 21 1021.8
20180421213008 61 356 3.0 10.0 0.00 0.00 0.00 22 1021.7
20180421212508 61 12 4.0 10.0 0.00 0.00 0.00 21 1021.7
20180421212008 62 323 4.0 12.0 0.00 0.00 0.00 21 1021.8
20180421211508 62 272 3.0 12.0 0.00 0.00 0.00 22 1021.9
20180421211008 62 275 3.0 8.0 0.00 0.00 0.00 22 1021.8
20180421210508 62 286 3.0 9.0 0.00 0.00 0.00 22 1021.9
20180421210009 62 283 3.0 10.0 0.00 0.00 0.00 23 1021.9
20180421205508 62 267 3.0 10.0 0.00 0.00 0.00 22 1021.8
20180421205008 62 270 3.0 9.0 0.00 0.00 0.00 22 1021.7
20180421204507 62 273 4.0 12.0 0.00 0.00 0.00 22 1021.8
20180421204008 62 279 4.0 12.0 0.00 0.00 0.00 22 1021.8
20180421203508 62 285 3.0 9.0 0.00 0.00 0.00 23 1021.8
20180421203008 62 276 3.0 10.0 0.00 0.00 0.00 23 1021.7
20180421202508 61 277 3.0 10.0 0.00 0.00 0.00 24 1021.8
20180421202008 61 284 2.0 5.0 0.00 0.00 0.00 24 1021.8
20180421201508 61 266 3.0 7.0 0.00 0.00 0.00 24 1021.8
20180421201008 61 267 3.0 11.0 0.00 0.00 0.00 24 1021.9
20180421200508 61 277 3.0 11.0 0.00 0.00 0.00 24 1022.0
20180421200009 61 268 4.0 10.0 0.00 0.00 0.00 24 1021.9
20180421195508 60 264 5.0 14.0 0.00 0.00 0.00 24 1022.0
20180421195008 61 276 4.0 14.0 0.00 0.00 0.00 24 1022.1
20180421194507 61 296 3.0 10.0 0.00 0.00 0.00 27 1022.1
20180421194007 60 288 4.0 10.0 0.00 0.00 0.00 26 1022.2
20180421193508 60 281 3.0 9.0 0.00 0.00 0.00 26 1022.1
20180421193008 61 269 3.0 9.0 0.00 0.00 0.00 25 1022.2
20180421192508 60 246 3.0 11.0 0.00 0.00 0.00 29 1022.4
20180421192007 60 236 4.0 11.0 0.00 0.00 0.00 26 1022.3
20180421191508 60 272 4.0 12.0 0.00 0.00 0.00 26 1022.4
20180421191007 60 296 3.0 12.0 0.00 0.00 0.00 26 1022.6
20180421190508 60 313 3.0 10.0 0.00 0.00 0.00 27 1022.6
20180421190008 60 314 3.0 10.0 0.00 0.00 0.00 28 1022.7
20180421185507 60 287 3.0 11.0 0.00 0.00 0.00 27 1022.7
20180421185008 60 279 3.0 11.0 0.00 0.00 0.00 28 1022.7
20180421184507 60 288 2.0 10.0 0.00 0.00 0.00 28 1023.0
20180421184008 59 299 2.0 7.0 0.00 0.00 0.00 30 1023.1
20180421183507 58 290 3.0 10.0 0.00 0.00 0.00 29 1023.2
20180421183008 58 266 4.0 11.0 0.00 0.00 0.00 30 1023.4
20180421182508 58 270 4.0 12.0 0.00 0.00 0.00 28 1023.5
20180421182008 58 289 3.0 12.0 0.00 0.00 0.00 28 1023.6
20180421181508 59 312 3.0 9.0 0.00 0.00 0.00 28 1023.7
20180421181008 58 311 3.0 9.0 0.00 0.00 0.00 30 1023.7
20180421180507 58 267 2.0 8.0 0.00 0.00 0.00 29 1023.7
20180421180008 57 283 3.0 9.0 0.00 0.00 0.00 29 1023.9
20180421175508 57 270 4.0 11.0 0.00 0.00 0.00 30 1023.9
20180421175007 57 265 4.0 11.0 0.00 0.00 0.00 30 1024.1
20180421174507 57 294 3.0 11.0 0.00 0.00 0.00 31 1024.1
20180421174007 57 301 3.0 10.0 0.00 0.00 0.00 33 1024.2
20180421173508 56 285 4.0 10.0 0.00 0.00 0.00 30 1024.2
20180421173008 56 280 4.0 10.0 0.00 0.00 0.00 33 1024.3
20180421172507 56 279 3.0 10.0 0.00 0.00 0.00 32 1024.3
20180421172008 56 313 3.0 9.0 0.00 0.00 0.00 33 1024.3
20180421171508 56 333 3.0 9.0 0.00 0.00 0.00 33 1024.3
20180421171008 56 295 3.0 9.0 0.00 0.00 0.00 34 1024.5
20180421170507 55 247 4.0 13.0 0.00 0.00 0.00 35 1024.6
20180421170009 55 250 4.0 13.0 0.00 0.00 0.00 35 1024.6
20180421165508 54 254 4.0 14.0 0.00 0.00 0.00 34 1024.7
20180421165008 54 257 3.0 14.0 0.00 0.00 0.00 34 1024.7
20180421164508 54 280 2.0 11.0 0.00 0.00 0.00 34 1024.9
20180421164007 54 282 4.0 11.0 0.00 0.00 0.00 35 1025.0
20180421163507 54 272 4.0 11.0 0.00 0.00 0.00 34 1025.1
20180421163008 53 262 4.0 15.0 0.00 0.00 0.00 35 1025.1
20180421162508 53 263 4.0 15.0 0.00 0.00 0.00 35 1025.3
20180421162008 53 280 4.0 11.0 0.00 0.00 0.00 34 1025.3
20180421161508 53 278 3.0 10.0 0.00 0.00 0.00 35 1025.3
20180421161007 53 304 3.0 9.0 0.00 0.00 0.00 36 1025.4
20180421160507 53 323 4.0 11.0 0.00 0.00 0.00 33 1025.4
20180421160008 53 328 3.0 11.0 0.00 0.00 0.00 34 1025.5
20180421155507 53 302 3.0 11.0 0.00 0.00 0.00 35 1025.5
20180421155008 52 275 3.0 11.0 0.00 0.00 0.00 37 1025.6
20180421154507 52 280 4.0 13.0 0.00 0.00 0.00 35 1025.7
20180421154008 52 300 4.0 13.0 0.00 0.00 0.00 34 1025.8
20180421153508 52 344 4.0 12.0 0.00 0.00 0.00 37 1025.9
20180421153008 52 341 3.0 12.0 0.00 0.00 0.00 35 1026.1
20180421152508 52 302 3.0 8.0 0.00 0.00 0.00 36 1026.1
20180421152008 52 264 4.0 11.0 0.00 0.00 0.00 35 1026.2
20180421151508 52 278 4.0 12.0 0.00 0.00 0.00 36 1026.2
20180421151008 52 298 3.0 12.0 0.00 0.00 0.00 36 1026.2
20180421150508 52 281 3.0 9.0 0.00 0.00 0.00 36 1026.3
20180421150008 52 277 4.0 10.0 0.00 0.00 0.00 35 1026.4
20180421145507 52 273 4.0 11.0 0.00 0.00 0.00 35 1026.4
20180421145008 52 327 4.0 12.0 0.00 0.00 0.00 36 1026.5
20180421144508 52 327 4.0 12.0 0.00 0.00 0.00 36 1026.5
20180421144008 52 270 3.0 10.0 0.00 0.00 0.00 36 1026.6
20180421143507 52 284 3.0 10.0 0.00 0.00 0.00 36 1026.6
20180421143007 51 344 3.0 9.0 0.00 0.00 0.00 39 1026.5
20180421142507 51 354 3.0 9.0 0.00 0.00 0.00 39 1026.6
20180421142007 51 278 3.0 8.0 0.00 0.00 0.00 40 1026.6
20180421141507 51 254 3.0 10.0 0.00 0.00 0.00 41 1026.5
20180421141007 50 253 3.0 10.0 0.00 0.00 0.00 39 1026.7
20180421140508 50 231 3.0 9.0 0.00 0.00 0.00 41 1026.6
20180421140007 50 235 3.0 9.0 0.00 0.00 0.00 42 1026.6
20180421135507 50 254 3.0 7.0 0.00 0.00 0.00 44 1026.7
20180421135007 50 258 2.0 5.0 0.00 0.00 0.00 44 1026.6
20180421134507 49 256 2.0 7.0 0.00 0.00 0.00 44 1026.7
20180421134008 48 266 4.0 10.0 0.00 0.00 0.00 44 1026.8
20180421133508 48 263 4.0 10.0 0.00 0.00 0.00 43 1026.7
20180421133007 49 248 3.0 9.0 0.00 0.00 0.00 43 1026.7
20180421132507 48 255 3.0 8.0 0.00 0.00 0.00 45 1026.8
20180421132007 48 261 3.0 8.0 0.00 0.00 0.00 44 1026.7
20180421131507 48 274 3.0 7.0 0.00 0.00 0.00 44 1026.8
20180421131007 48 301 2.0 7.0 0.00 0.00 0.00 46 1026.8
20180421130507 48 276 2.0 9.0 0.00 0.00 0.00 47 1026.7
20180421130008 47 258 3.0 9.0 0.00 0.00 0.00 48 1026.6
20180421125508 47 232 3.0 9.0 0.00 0.00 0.00 47 1026.7
20180421125008 47 224 3.0 8.0 0.00 0.00 0.00 48 1026.6
20180421124508 47 238 2.0 7.0 0.00 0.00 0.00 49 1026.6
20180421124007 46 233 1.0 5.0 0.00 0.00 0.00 51 1026.7
20180421123508 46 228 2.0 5.0 0.00 0.00 0.00 51 1026.6
20180421123008 45 238 2.0 6.0 0.00 0.00 0.00 52 1026.6
20180421122507 44 260 2.0 6.0 0.00 0.00 0.00 53 1026.7
20180421122007 44 266 2.0 6.0 0.00 0.00 0.00 54 1026.7
20180421121507 43 268 2.0 9.0 0.00 0.00 0.00 56 1026.6
20180421121008 42 270 4.0 9.0 0.00 0.00 0.00 55 1026.8
20180421120507 42 270 3.0 8.0 0.00 0.00 0.00 57 1026.8
20180421120008 41 270 3.0 9.0 0.00 0.00 0.00 58 1026.9
20180421115507 41 262 3.0 9.0 0.00 0.00 0.00 59 1026.9
20180421115007 40 253 2.0 7.0 0.00 0.00 0.00 60 1026.9
20180421114508 40 281 2.0 5.0 0.00 0.00 0.00 62 1026.9
20180421114007 39 312 2.0 4.0 0.00 0.00 0.00 63 1026.9
20180421113507 38 323 2.0 5.0 0.00 0.00 0.00 64 1026.9
20180421113008 38 297 1.0 5.0 0.00 0.00 0.00 66 1026.8
20180421112508 37 267 1.0 4.0 0.00 0.00 0.00 66 1026.7
20180421112007 37 267 1.0 4.0 0.00 0.00 0.00 67 1026.8
20180421111508 36 267 2.0 4.0 0.00 0.00 0.00 67 1026.8
20180421111007 36 269 2.0 4.0 0.00 0.00 0.00 68 1026.7
20180421110507 36 270 1.0 4.0 0.00 0.00 0.00 68 1026.8
20180421110008 36 270 2.0 7.0 0.00 0.00 0.00 69 1026.8
20180421105507 35 270 2.0 7.0 0.00 0.00 0.00 69 1026.8
20180421105007 35 270 2.0 4.0 0.00 0.00 0.00 70 1026.7
20180421104508 35 270 1.0 4.0 0.00 0.00 0.00 70 1026.6
20180421104007 34 270 1.0 4.0 0.00 0.00 0.00 70 1026.5
20180421103507 34 270 1.0 3.0 0.00 0.00 0.00 71 1026.5
20180421103008 34 270 1.0 3.0 0.00 0.00 0.00 71 1026.4
20180421102507 34 270 1.0 3.0 0.00 0.00 0.00 70 1026.4
20180421102008 34 270 1.0 3.0 0.00 0.00 0.00 70 1026.3
20180421101507 34 270 1.0 4.0 0.00 0.00 0.00 70 1026.3
20180421101008 35 270 1.0 4.0 0.00 0.00 0.00 70 1026.2
20180421100508 35 270 1.0 6.0 0.00 0.00 0.00 69 1026.3
20180421100007 35 270 1.0 6.0 0.00 0.00 0.00 69 1026.2
20180421095507 35 270 1.0 6.0 0.00 0.00 0.00 69 1026.2
20180421095007 35 270 2.0 6.0 0.00 0.00 0.00 69 1026.2
20180421094507 35 270 2.0 6.0 0.00 0.00 0.00 69 1026.1
20180421094007 35 266 2.0 7.0 0.00 0.00 0.00 69 1026.1
20180421093507 35 262 1.0 7.0 0.00 0.00 0.00 69 1026.0
20180421093007 35 262 1.0 4.0 0.00 0.00 0.00 68 1026.0
20180421092507 35 262 1.0 4.0 0.00 0.00 0.00 68 1026.0
20180421092008 35 262 1.0 3.0 0.00 0.00 0.00 68 1026.0
20180421091512 35 262 1.0 3.0 0.00 0.00 0.00 68 1025.9
20180421091007 35 261 1.0 4.0 0.00 0.00 0.00 68 1025.9
20180421090507 35 260 1.0 4.0 0.00 0.00 0.00 68 1025.8
20180421090008 35 260 1.0 3.0 0.00 0.00 0.00 68 1025.9
20180421085507 36 259 2.0 6.0 0.00 0.00 0.00 68 1025.9
20180421085007 36 259 2.0 6.0 0.00 0.00 0.00 68 1025.9
20180421084507 36 255 2.0 6.0 0.00 0.00 0.00 68 1025.8
20180421084007 36 251 2.0 5.0 0.00 0.00 0.00 68 1025.9
20180421083507 36 250 1.0 5.0 0.00 0.00 0.00 67 1025.9
20180421083007 36 251 1.0 5.0 0.00 0.00 0.00 68 1025.8
20180421082507 36 251 1.0 5.0 0.00 0.00 0.00 68 1025.8
20180421082007 36 251 1.0 3.0 0.00 0.00 0.00 68 1025.8
20180421081507 36 251 1.0 3.0 0.00 0.00 0.00 68 1025.8
20180421081007 36 251 1.0 3.0 0.00 0.00 0.00 68 1025.8
20180421080507 36 250 1.0 3.0 0.00 0.00 0.00 69 1025.8
20180421080008 36 251 1.0 3.0 0.00 0.00 0.00 69 1025.8
20180421075507 36 250 1.0 3.0 0.00 0.00 0.00 69 1025.8
20180421075009 36 251 1.0 5.0 0.00 0.00 0.00 69 1025.7
20180421074507 36 252 2.0 5.0 0.00 0.00 0.00 69 1025.7
20180421074007 36 259 1.0 4.0 0.00 0.00 0.00 69 1025.6
20180421073507 36 270 1.0 3.0 0.00 0.00 0.00 69 1025.5
20180421073007 36 276 1.0 4.0 0.00 0.00 0.00 69 1025.5
20180421072507 36 276 1.0 4.0 0.00 0.00 0.00 69 1025.4
20180421072007 35 277 1.0 4.0 0.00 0.00 0.00 70 1025.4
20180421071507 35 277 1.0 4.0 0.00 0.00 0.00 70 1025.3
20180421071007 35 277 1.0 3.0 0.00 0.00 0.00 70 1025.4
20180421070508 35 277 0.0 2.0 0.00 0.00 0.00 69 1025.3
20180421070008 36 277 0.0 2.0 0.00 0.00 0.00 69 1025.2
20180421065507 36 277 0.0 2.0 0.00 0.00 0.00 68 1025.3
20180421065008 36 277 1.0 3.0 0.00 0.00 0.00 68 1025.3
20180421064507 36 277 1.0 4.0 0.00 0.00 0.00 68 1025.3
20180421064008 36 277 2.0 4.0 0.00 0.00 0.00 68 1025.3
20180421063507 36 277 1.0 3.0 0.00 0.00 0.00 68 1025.3
20180421063007 36 278 0.0 3.0 0.00 0.00 0.00 68 1025.3
20180421062507 36 278 0.0 2.0 0.00 0.00 0.00 67 1025.3
20180421062007 36 278 1.0 2.0 0.00 0.00 0.00 67 1025.4
20180421061508 36 278 1.0 3.0 0.00 0.00 0.00 67 1025.4
20180421061007 36 277 1.0 3.0 0.00 0.00 0.00 67 1025.4
20180421060508 36 277 1.0 3.0 0.00 0.00 0.00 67 1025.3
20180421060008 36 276 1.0 3.0 0.00 0.00 0.00 67 1025.4
20180421055507 36 276 1.0 3.0 0.00 0.00 0.00 67 1025.4
20180421055010 36 276 1.0 3.0 0.00 0.00 0.00 67 1025.4
20180421054509 36 276 1.0 3.0 0.00 0.00 0.00 66 1025.5
20180421054008 37 276 1.0 2.0 0.00 0.00 0.00 66 1025.6
20180421053511 37 276 1.0 2.0 0.00 0.00 0.00 66 1025.6
20180421053007 37 276 1.0 2.0 0.00 0.00 0.00 65 1025.6
20180421052507 37 277 1.0 3.0 0.00 0.00 0.00 65 1025.7
20180421052007 37 277 2.0 6.0 0.00 0.00 0.00 65 1025.7
20180421051508 37 276 2.0 6.0 0.00 0.00 0.00 64 1025.7
20180421051007 37 274 2.0 6.0 0.00 0.00 0.00 64 1025.7
20180421050507 37 273 2.0 6.0 0.00 0.00 0.00 64 1025.7
20180421050007 37 273 1.0 6.0 0.00 0.00 0.00 64 1025.7
20180421045507 37 273 1.0 3.0 0.00 0.00 0.00 64 1025.7
20180421045007 37 272 1.0 3.0 0.00 0.00 0.00 64 1025.6
20180421044507 37 272 1.0 4.0 0.00 0.00 0.00 64 1025.5
20180421044007 37 272 1.0 4.0 0.00 0.00 0.00 64 1025.5
20180421043507 37 272 1.0 4.0 0.00 0.00 0.00 64 1025.5
20180421043008 37 273 1.0 4.0 0.00 0.00 0.00 63 1025.5
20180421042507 37 273 1.0 3.0 0.00 0.00 0.00 63 1025.4
20180421042007 37 273 1.0 3.0 0.00 0.00 0.00 63 1025.5
20180421041508 37 273 1.0 3.0 0.00 0.00 0.00 63 1025.4
20180421041007 38 272 1.0 3.0 0.00 0.00 0.00 62 1025.4
20180421040507 38 272 1.0 3.0 0.00 0.00 0.00 62 1025.5
20180421040008 38 273 1.0 2.0 0.00 0.00 0.00 62 1025.5
20180421035508 38 273 0.0 2.0 0.00 0.00 0.00 62 1025.5
20180421035007 38 273 1.0 2.0 0.00 0.00 0.00 61 1025.4
20180421034507 38 273 1.0 3.0 0.00 0.00 0.00 61 1025.4
20180421034007 38 273 1.0 3.0 0.00 0.00 0.00 61 1025.4
20180421033507 38 273 1.0 4.0 0.00 0.00 0.00 61 1025.3
20180421033008 38 272 1.0 4.0 0.00 0.00 0.00 61 1025.3
20180421032507 38 273 1.0 4.0 0.00 0.00 0.00 61 1025.2
20180421032007 38 274 1.0 3.0 0.00 0.00 0.00 60 1025.2
20180421031507 39 275 1.0 3.0 0.00 0.00 0.00 60 1025.2
20180421031007 39 275 1.0 4.0 0.00 0.00 0.00 60 1025.2
20180421030507 39 275 1.0 4.0 0.00 0.00 0.00 59 1025.2
20180421030007 39 275 1.0 3.0 0.00 0.00 0.00 59 1025.1
20180421025507 39 275 1.0 2.0 0.00 0.00 0.00 59 1025.1
20180421025007 39 276 1.0 2.0 0.00 0.00 0.00 58 1025.1
20180421024507 39 276 1.0 3.0 0.00 0.00 0.00 58 1025.0